Hourly Data Report for July 24, 2021

IQALUIT CLIMATE
NUNAVUT
Current Station Operator: ECCC - MSC

63°44'50.000" N
68°32'40.000" W
33.50 m
2402592
71321
XFB

Download Data

Hourly Data (July 2021)
Hourly Data Report for July 24, 2021
TIME
LST
Temp Definition
°C
Dew Point Definition
°C
Rel Hum Definition
%
Precip. Amount Definition
mm

Wind Dir Definition
10's deg

Wind Spd Definition
km/h
Visibility Definition
km
Stn Press Definition
kPa
Hmdx Definition


Wind Chill Definition


Weather Definition


00:00 7.4 4.0 79 0.0 13 7   100.44     LegendNANA
01:00 6.7 4.1 83 0.0 14 9   100.45     LegendNANA
02:00 6.5 4.1 85 0.0 12 6   100.44     LegendNANA
03:00 7.3 4.6 83 0.0 13 9   100.39     LegendNANA
04:00 6.8 4.2 83 0.0 13 9   100.34     LegendNANA
05:00 8.8 4.1 73 0.0 12 14   100.27     LegendNANA
06:00 7.0 3.9 81 0.0 14 15   100.23     LegendNANA
07:00 6.1 3.3 82 0.0 13 9   100.19     LegendNANA
08:00 7.0 3.1 76 0.0 14 18   100.14     LegendNANA
09:00 9.7 3.8 66 0.0 13 24   100.07     LegendNANA
10:00 9.5 4.8 73 0.0 15 23   100.05     LegendNANA
11:00 9.3 3.7 68 0.0 15 28   100.01     LegendNANA
12:00 8.9 5.8 81 0.0 15 27   99.91     LegendNANA
13:00 10.1 6.7 80 0.5 13 21   99.82     LegendNANA
14:00 6.4 3.7 83 0.2 15 20   99.77     LegendNANA
15:00 6.3 4.0 85 0.0 14 16   99.67     LegendNANA
16:00 11.0 5.3 68 0.0 14 32   99.57     LegendNANA
17:00 7.2 4.9 85 0.8 15 27   99.56     LegendNANA
18:00 8.3 6.2 86 1.9 15 21   99.52     LegendNANA
19:00 8.2 6.0 86 0.0 14 10   99.43     LegendNANA
20:00 6.6 4.9 89 0.0 14 7   99.45     LegendNANA
21:00 8.6 5.8 83 0.0 14 29   99.34     LegendNANA
22:00 9.4 6.1 80 0.0 14 33   99.23     LegendNANA
23:00 9.4 6.4 82 0.0 14 22   99.13     LegendNANA

Notes on Data Quality.

Legend

  • E = Estimated
  • M = Missing
  • NA = Not Available*
  • [empty] = Indicates an unobserved value
Date modified: